Time,TemperatureF,DewpointF,PressureIn,WindDirection,WindDirectionDegrees,WindSpeedMPH,WindSpeedGustMPH,Humidity,HourlyPrecipIn,Conditions,Clouds,dailyrainin,SoftwareType,DateUTC
2013-05-30 00:03:00,73.0,-99.9,30.24,South,185,4.0,9.0,-999,-99.99,,,-99.99,,2013-05-30 04:03:00,
2013-05-30 00:13:00,73.0,-99.9,30.24,South,187,6.0,11.0,-999,-99.99,,,-99.99,,2013-05-30 04:13:00,
2013-05-30 00:23:00,73.0,-99.9,30.24,South,184,7.0,11.0,-999,-99.99,,,-99.99,,2013-05-30 04:23:00,
2013-05-30 00:33:00,73.0,-99.9,30.24,South,184,6.0,13.0,-999,-99.99,,,-99.99,,2013-05-30 04:33:00,
2013-05-30 00:42:00,73.0,-99.9,30.24,South,190,5.0,9.0,-999,-99.99,,,-99.99,,2013-05-30 04:42:00,
2013-05-30 00:53:00,73.0,-99.9,30.24,South,184,5.0,9.0,-999,-99.99,,,-99.99,,2013-05-30 04:53:00,
2013-05-30 01:02:00,73.0,-99.9,30.24,South,181,7.0,11.0,-999,-99.99,,,-99.99,,2013-05-30 05:02:00,
2013-05-30 01:12:00,73.0,-99.9,30.24,South,183,5.0,11.0,-999,-99.99,,,-99.99,,2013-05-30 05:12:00,
2013-05-30 01:22:00,73.0,-99.9,30.23,South,181,7.0,10.0,-999,-99.99,,,-99.99,,2013-05-30 05:22:00,
2013-05-30 01:32:00,73.0,-99.9,30.23,South,188,3.0,9.0,-999,-99.99,,,-99.99,,2013-05-30 05:32:00,
2013-05-30 01:43:00,73.0,-99.9,30.23,SSW,193,4.0,7.0,-999,-99.99,,,-99.99,,2013-05-30 05:43:00,
2013-05-30 01:52:00,73.0,-99.9,30.24,South,188,3.0,6.0,-999,-99.99,,,-99.99,,2013-05-30 05:52:00,
2013-05-30 02:01:00,73.0,-99.9,30.24,South,191,3.0,6.0,-999,-99.99,,,-99.99,,2013-05-30 06:01:00,
2013-05-30 02:12:00,73.0,-99.9,30.24,South,181,3.0,6.0,-999,-99.99,,,-99.99,,2013-05-30 06:12:00,
2013-05-30 02:22:00,72.0,-99.9,30.23,South,190,3.0,6.0,-999,-99.99,,,-99.99,,2013-05-30 06:22:00,
2013-05-30 02:32:00,72.0,-99.9,30.23,SSW,196,3.0,6.0,-999,-99.99,,,-99.99,,2013-05-30 06:32:00,
2013-05-30 02:42:00,72.0,-99.9,30.24,SSW,206,5.0,7.0,-999,-99.99,,,-99.99,,2013-05-30 06:42:00,
2013-05-30 02:52:00,72.0,-99.9,30.23,SSW,205,6.0,8.0,-999,-99.99,,,-99.99,,2013-05-30 06:52:00,
2013-05-30 03:02:00,72.0,-99.9,30.23,South,189,4.0,6.0,-999,-99.99,,,-99.99,,2013-05-30 07:02:00,
2013-05-30 03:12:00,72.0,-99.9,30.23,South,186,4.0,8.0,-999,-99.99,,,-99.99,,2013-05-30 07:12:00,
2013-05-30 03:22:00,72.0,-99.9,30.23,SSW,205,5.0,7.0,-999,-99.99,,,-99.99,,2013-05-30 07:22:00,
2013-05-30 03:32:00,72.0,-99.9,30.23,South,186,2.0,6.0,-999,-99.99,,,-99.99,,2013-05-30 07:32:00,
2013-05-30 03:42:00,72.0,-99.9,30.24,SSW,195,4.0,6.0,-999,-99.99,,,-99.99,,2013-05-30 07:42:00,
2013-05-30 03:52:00,72.0,-99.9,30.24,SSW,198,3.0,6.0,-999,-99.99,,,-99.99,,2013-05-30 07:52:00,
2013-05-30 04:02:00,72.0,-99.9,30.24,SSW,212,4.0,6.0,-999,-99.99,,,-99.99,,2013-05-30 08:02:00,
2013-05-30 04:11:00,72.0,-99.9,30.24,SSW,205,4.0,6.0,-999,-99.99,,,-99.99,,2013-05-30 08:11:00,
2013-05-30 04:22:00,71.0,-99.9,30.24,SW,220,3.0,5.0,-999,-99.99,,,-99.99,,2013-05-30 08:22:00,
2013-05-30 04:32:00,71.0,-99.9,30.24,SW,221,3.0,5.0,-999,-99.99,,,-99.99,,2013-05-30 08:32:00,
2013-05-30 04:42:00,71.0,-99.9,30.24,SW,215,4.0,4.0,-999,-99.99,,,-99.99,,2013-05-30 08:42:00,
2013-05-30 04:53:00,71.0,-99.9,30.24,SW,217,3.0,4.0,-999,-99.99,,,-99.99,,2013-05-30 08:53:00,
2013-05-30 05:01:00,71.0,-99.9,30.24,SSW,195,2.0,4.0,-999,-99.99,,,-99.99,,2013-05-30 09:01:00,
2013-05-30 05:11:00,71.0,-99.9,30.24,SSW,199,2.0,3.0,-999,-99.99,,,-99.99,,2013-05-30 09:11:00,
2013-05-30 05:22:00,71.0,-99.9,30.24,SSW,196,3.0,5.0,-999,-99.99,,,-99.99,,2013-05-30 09:22:00,
2013-05-30 05:33:00,71.0,-99.9,30.24,SW,217,4.0,5.0,-999,-99.99,,,-99.99,,2013-05-30 09:33:00,
2013-05-30 05:43:00,71.0,-99.9,30.25,SW,215,4.0,5.0,-999,-99.99,,,-99.99,,2013-05-30 09:43:00,
2013-05-30 05:53:00,71.0,-99.9,30.24,South,186,2.0,4.0,-999,-99.99,,,-99.99,,2013-05-30 09:53:00,
2013-05-30 06:03:00,71.0,-99.9,30.25,South,174,2.0,3.0,-999,-99.99,,,-99.99,,2013-05-30 10:03:00,
2013-05-30 06:13:00,71.0,-99.9,30.25,SSW,212,3.0,4.0,-999,-99.99,,,-99.99,,2013-05-30 10:13:00,
2013-05-30 06:23:00,71.0,-99.9,30.25,SSW,209,4.0,4.0,-999,-99.99,,,-99.99,,2013-05-30 10:23:00,
2013-05-30 06:33:00,71.0,-99.9,30.26,South,182,2.0,3.0,-999,-99.99,,,-99.99,,2013-05-30 10:33:00,
2013-05-30 06:42:00,71.0,-99.9,30.26,South,177,2.0,3.0,-999,-99.99,,,-99.99,,2013-05-30 10:42:00,
2013-05-30 06:52:00,72.0,-99.9,30.26,SSW,210,2.0,3.0,-999,-99.99,,,-99.99,,2013-05-30 10:52:00,
2013-05-30 07:03:00,72.0,-99.9,30.26,SW,224,2.0,2.0,-999,-99.99,,,-99.99,,2013-05-30 11:03:00,
2013-05-30 07:12:00,73.0,-99.9,30.27,SW,235,2.0,2.0,-999,-99.99,,,-99.99,,2013-05-30 11:12:00,
2013-05-30 07:22:00,73.0,-99.9,30.27,SSW,211,3.0,3.0,-999,-99.99,,,-99.99,,2013-05-30 11:22:00,
2013-05-30 07:32:00,74.0,-99.9,30.27,South,184,2.0,3.0,-999,-99.99,,,-99.99,,2013-05-30 11:32:00,
2013-05-30 07:42:00,74.0,-99.9,30.27,SSE,167,2.0,3.0,-999,-99.99,,,-99.99,,2013-05-30 11:42:00,
2013-05-30 07:52:00,74.0,-99.9,30.27,SW,221,3.0,4.0,-999,-99.99,,,-99.99,,2013-05-30 11:52:00,
2013-05-30 08:02:00,74.0,-99.9,30.27,SW,217,3.0,4.0,-999,-99.99,,,-99.99,,2013-05-30 12:02:00,
2013-05-30 08:11:00,74.0,-99.9,30.27,SW,217,3.0,4.0,-999,-99.99,,,-99.99,,2013-05-30 12:11:00,
2013-05-30 08:32:00,75.0,-99.9,30.28,SW,225,4.0,6.0,-999,-99.99,,,-99.99,,2013-05-30 12:32:00,
2013-05-30 08:42:00,75.0,-99.9,30.28,SW,220,5.0,7.0,-999,-99.99,,,-99.99,,2013-05-30 12:42:00,
2013-05-30 08:52:00,75.0,-99.9,30.29,SW,227,6.0,9.0,-999,-99.99,,,-99.99,,2013-05-30 12:52:00,
2013-05-30 09:01:00,75.0,-99.9,30.29,West,259,6.0,8.0,-999,-99.99,,,-99.99,,2013-05-30 13:01:00,
2013-05-30 09:11:00,75.0,-99.9,30.29,West,262,6.0,9.0,-999,-99.99,,,-99.99,,2013-05-30 13:11:00,
2013-05-30 09:22:00,76.0,-99.9,30.29,WSW,246,6.0,9.0,-999,-99.99,,,-99.99,,2013-05-30 13:22:00,
2013-05-30 09:32:00,76.0,-99.9,30.29,SW,226,9.0,12.0,-999,-99.99,,,-99.99,,2013-05-30 13:32:00,
2013-05-30 09:42:00,77.0,-99.9,30.29,WSW,243,7.0,11.0,-999,-99.99,,,-99.99,,2013-05-30 13:42:00,
2013-05-30 09:52:00,77.0,-99.9,30.29,WSW,244,7.0,11.0,-999,-99.99,,,-99.99,,2013-05-30 13:52:00,
2013-05-30 10:02:00,77.0,-99.9,30.29,SW,224,7.0,10.0,-999,-99.99,,,-99.99,,2013-05-30 14:02:00,
2013-05-30 10:12:00,77.0,-99.9,30.29,SW,225,6.0,10.0,-999,-99.99,,,-99.99,,2013-05-30 14:12:00,
2013-05-30 10:22:00,77.0,-99.9,30.29,SSW,213,7.0,11.0,-999,-99.99,,,-99.99,,2013-05-30 14:22:00,
2013-05-30 10:32:00,77.0,-99.9,30.29,SSW,213,7.0,11.0,-999,-99.99,,,-99.99,,2013-05-30 14:32:00,
2013-05-30 10:52:00,77.0,-99.9,30.28,SW,229,8.0,11.0,-999,-99.99,,,-99.99,,2013-05-30 14:52:00,
2013-05-30 11:01:00,77.0,-99.9,30.28,SW,216,6.0,10.0,-999,-99.99,,,-99.99,,2013-05-30 15:01:00,
2013-05-30 11:11:00,76.0,-99.9,30.28,SSW,213,7.0,11.0,-999,-99.99,,,-99.99,,2013-05-30 15:11:00,
2013-05-30 11:22:00,77.0,-99.9,30.28,SW,220,6.0,8.0,-999,-99.99,,,-99.99,,2013-05-30 15:22:00,
2013-05-30 11:33:00,78.0,-99.9,30.28,SSW,207,3.0,9.0,-999,-99.99,,,-99.99,,2013-05-30 15:33:00,
2013-05-30 11:43:00,78.0,-99.9,30.27,South,184,5.0,8.0,-999,-99.99,,,-99.99,,2013-05-30 15:43:00,
2013-05-30 11:53:00,77.0,-99.9,30.27,SSW,197,4.0,7.0,-999,-99.99,,,-99.99,,2013-05-30 15:53:00,
2013-05-30 12:03:00,77.0,-99.9,30.27,SSW,199,4.0,6.0,-999,-99.99,,,-99.99,,2013-05-30 16:03:00,
2013-05-30 12:13:00,77.0,-99.9,30.27,SSW,203,5.0,7.0,-999,-99.99,,,-99.99,,2013-05-30 16:13:00,
2013-05-30 12:23:00,77.0,-99.9,30.27,SSW,212,4.0,7.0,-999,-99.99,,,-99.99,,2013-05-30 16:23:00,
2013-05-30 12:33:00,77.0,-99.9,30.27,SSW,203,4.0,7.0,-999,-99.99,,,-99.99,,2013-05-30 16:33:00,
2013-05-30 12:42:00,78.0,-99.9,30.27,South,187,5.0,7.0,-999,-99.99,,,-99.99,,2013-05-30 16:42:00,
2013-05-30 12:53:00,78.0,-99.9,30.27,SSE,168,5.0,7.0,-999,-99.99,,,-99.99,,2013-05-30 16:53:00,
2013-05-30 13:03:00,78.0,-99.9,30.27,South,169,4.0,7.0,-999,-99.99,,,-99.99,,2013-05-30 17:03:00,
2013-05-30 13:12:00,78.0,-99.9,30.27,South,179,6.0,9.0,-999,-99.99,,,-99.99,,2013-05-30 17:12:00,
2013-05-30 13:22:00,78.0,-99.9,30.27,South,175,6.0,8.0,-999,-99.99,,,-99.99,,2013-05-30 17:22:00,
2013-05-30 13:32:00,78.0,-99.9,30.27,South,176,6.0,8.0,-999,-99.99,,,-99.99,,2013-05-30 17:32:00,
2013-05-30 13:42:00,78.0,-99.9,30.26,South,186,5.0,8.0,-999,-99.99,,,-99.99,,2013-05-30 17:42:00,
2013-05-30 13:52:00,78.0,-99.9,30.26,South,173,5.0,9.0,-999,-99.99,,,-99.99,,2013-05-30 17:52:00,
2013-05-30 14:02:00,78.0,-99.9,30.26,SSE,166,6.0,9.0,-999,-99.99,,,-99.99,,2013-05-30 18:02:00,
2013-05-30 14:11:00,77.0,-99.9,30.26,SSE,167,8.0,9.0,-999,-99.99,,,-99.99,,2013-05-30 18:11:00,
2013-05-30 14:22:00,78.0,-99.9,30.26,South,171,5.0,8.0,-999,-99.99,,,-99.99,,2013-05-30 18:22:00,
2013-05-30 14:32:00,78.0,-99.9,30.25,SSE,166,6.0,9.0,-999,-99.99,,,-99.99,,2013-05-30 18:32:00,
2013-05-30 14:43:00,78.0,-99.9,30.25,South,176,6.0,8.0,-999,-99.99,,,-99.99,,2013-05-30 18:43:00,
2013-05-30 14:52:00,78.0,-99.9,30.25,South,179,7.0,8.0,-999,-99.99,,,-99.99,,2013-05-30 18:52:00,
2013-05-30 15:02:00,79.0,-99.9,30.25,South,171,6.0,9.0,-999,-99.99,,,-99.99,,2013-05-30 19:02:00,
2013-05-30 15:12:00,79.0,-99.9,30.25,South,171,6.0,9.0,-999,-99.99,,,-99.99,,2013-05-30 19:12:00,
2013-05-30 15:32:00,80.0,-99.9,30.24,South,177,6.0,9.0,-999,-99.99,,,-99.99,,2013-05-30 19:32:00,
2013-05-30 15:42:00,80.0,-99.9,30.24,South,184,6.0,11.0,-999,-99.99,,,-99.99,,2013-05-30 19:42:00,
2013-05-30 15:53:00,79.0,-99.9,30.24,South,184,7.0,10.0,-999,-99.99,,,-99.99,,2013-05-30 19:53:00,
2013-05-30 16:02:00,80.0,-99.9,30.24,South,183,8.0,11.0,-999,-99.99,,,-99.99,,2013-05-30 20:02:00,
2013-05-30 16:11:00,80.0,-99.9,30.24,South,179,6.0,10.0,-999,-99.99,,,-99.99,,2013-05-30 20:11:00,
2013-05-30 16:23:00,78.0,-99.9,30.23,South,176,8.0,11.0,-999,-99.99,,,-99.99,,2013-05-30 20:23:00,
2013-05-30 16:33:00,78.0,-99.9,30.23,South,175,8.0,11.0,-999,-99.99,,,-99.99,,2013-05-30 20:33:00,
2013-05-30 16:42:00,78.0,-99.9,30.23,South,175,8.0,11.0,-999,-99.99,,,-99.99,,2013-05-30 20:42:00,
2013-05-30 16:52:00,78.0,-99.9,30.23,South,174,8.0,11.0,-999,-99.99,,,-99.99,,2013-05-30 20:52:00,
2013-05-30 17:02:00,79.0,-99.9,30.23,South,181,6.0,11.0,-999,-99.99,,,-99.99,,2013-05-30 21:02:00,
2013-05-30 17:11:00,79.0,-99.9,30.23,South,179,7.0,11.0,-999,-99.99,,,-99.99,,2013-05-30 21:11:00,
2013-05-30 17:22:00,79.0,-99.9,30.23,South,180,7.0,10.0,-999,-99.99,,,-99.99,,2013-05-30 21:22:00,
2013-05-30 17:33:00,78.0,-99.9,30.23,South,177,8.0,11.0,-999,-99.99,,,-99.99,,2013-05-30 21:33:00,
2013-05-30 17:43:00,78.0,-99.9,30.22,South,176,9.0,11.0,-999,-99.99,,,-99.99,,2013-05-30 21:43:00,
2013-05-30 17:53:00,77.0,-99.9,30.22,South,176,10.0,12.0,-999,-99.99,,,-99.99,,2013-05-30 21:53:00,
2013-05-30 18:03:00,78.0,-99.9,30.22,South,182,7.0,10.0,-999,-99.99,,,-99.99,,2013-05-30 22:03:00,
2013-05-30 18:12:00,78.0,-99.9,30.22,South,181,7.0,11.0,-999,-99.99,,,-99.99,,2013-05-30 22:12:00,
2013-05-30 18:23:00,78.0,-99.9,30.22,South,179,8.0,11.0,-999,-99.99,,,-99.99,,2013-05-30 22:23:00,
2013-05-30 18:33:00,78.0,-99.9,30.22,South,181,6.0,10.0,-999,-99.99,,,-99.99,,2013-05-30 22:33:00,
2013-05-30 18:42:00,78.0,-99.9,30.22,South,181,6.0,10.0,-999,-99.99,,,-99.99,,2013-05-30 22:42:00,
2013-05-30 18:52:00,78.0,-99.9,30.22,South,179,8.0,10.0,-999,-99.99,,,-99.99,,2013-05-30 22:52:00,
2013-05-30 19:02:00,78.0,-99.9,30.23,South,180,6.0,10.0,-999,-99.99,,,-99.99,,2013-05-30 23:02:00,
2013-05-30 19:12:00,78.0,-99.9,30.23,South,181,7.0,10.0,-999,-99.99,,,-99.99,,2013-05-30 23:12:00,
2013-05-30 19:22:00,78.0,-99.9,30.23,South,184,4.0,9.0,-999,-99.99,,,-99.99,,2013-05-30 23:22:00,
2013-05-30 19:32:00,78.0,-99.9,30.23,South,190,4.0,7.0,-999,-99.99,,,-99.99,,2013-05-30 23:32:00,
2013-05-30 19:42:00,78.0,-99.9,30.23,South,180,5.0,7.0,-999,-99.99,,,-99.99,,2013-05-30 23:42:00,
2013-05-30 19:52:00,77.0,-99.9,30.23,South,185,4.0,7.0,-999,-99.99,,,-99.99,,2013-05-30 23:52:00,
2013-05-30 20:01:00,77.0,-99.9,30.23,South,181,6.0,9.0,-999,-99.99,,,-99.99,,2013-05-31 00:01:00,
2013-05-30 20:11:00,76.0,-99.9,30.23,South,181,7.0,10.0,-999,-99.99,,,-99.99,,2013-05-31 00:11:00,
2013-05-30 20:22:00,76.0,-99.9,30.23,South,181,6.0,9.0,-999,-99.99,,,-99.99,,2013-05-31 00:22:00,
2013-05-30 20:32:00,76.0,-99.9,30.23,South,177,6.0,9.0,-999,-99.99,,,-99.99,,2013-05-31 00:32:00,
2013-05-30 20:42:00,75.0,-99.9,30.23,South,180,6.0,9.0,-999,-99.99,,,-99.99,,2013-05-31 00:42:00,
2013-05-30 20:52:00,75.0,-99.9,30.23,South,178,7.0,9.0,-999,-99.99,,,-99.99,,2013-05-31 00:52:00,
2013-05-30 21:01:00,75.0,-99.9,30.23,South,178,6.0,9.0,-999,-99.99,,,-99.99,,2013-05-31 01:01:00,
2013-05-30 21:12:00,75.0,-99.9,30.23,South,176,7.0,9.0,-999,-99.99,,,-99.99,,2013-05-31 01:12:00,
2013-05-30 21:22:00,75.0,-99.9,30.23,South,172,7.0,9.0,-999,-99.99,,,-99.99,,2013-05-31 01:22:00,
2013-05-30 21:32:00,75.0,-99.9,30.23,South,177,7.0,10.0,-999,-99.99,,,-99.99,,2013-05-31 01:32:00,
2013-05-30 21:42:00,75.0,-99.9,30.23,South,183,4.0,9.0,-999,-99.99,,,-99.99,,2013-05-31 01:42:00,
2013-05-30 21:52:00,75.0,-99.9,30.23,South,185,6.0,9.0,-999,-99.99,,,-99.99,,2013-05-31 01:52:00,
2013-05-30 22:02:00,75.0,-99.9,30.23,South,178,8.0,11.0,-999,-99.99,,,-99.99,,2013-05-31 02:02:00,
2013-05-30 22:11:00,75.0,-99.9,30.24,South,179,6.0,11.0,-999,-99.99,,,-99.99,,2013-05-31 02:11:00,
2013-05-30 22:22:00,75.0,-99.9,30.24,South,183,6.0,11.0,-999,-99.99,,,-99.99,,2013-05-31 02:22:00,
2013-05-30 22:32:00,75.0,-99.9,30.24,South,183,7.0,10.0,-999,-99.99,,,-99.99,,2013-05-31 02:32:00,
2013-05-30 22:42:00,75.0,-99.9,30.23,South,180,9.0,12.0,-999,-99.99,,,-99.99,,2013-05-31 02:42:00,
2013-05-30 22:52:00,75.0,-99.9,30.23,South,175,10.0,13.0,-999,-99.99,,,-99.99,,2013-05-31 02:52:00,
2013-05-30 23:01:00,75.0,-99.9,30.23,South,178,8.0,12.0,-999,-99.99,,,-99.99,,2013-05-31 03:01:00,
2013-05-30 23:11:00,75.0,-99.9,30.23,South,183,7.0,13.0,-999,-99.99,,,-99.99,,2013-05-31 03:11:00,
2013-05-30 23:22:00,74.0,-99.9,30.22,South,185,6.0,12.0,-999,-99.99,,,-99.99,,2013-05-31 03:22:00,
2013-05-30 23:33:00,74.0,-99.9,30.22,South,186,5.0,11.0,-999,-99.99,,,-99.99,,2013-05-31 03:33:00,
2013-05-30 23:43:00,74.0,-99.9,30.22,South,184,6.0,11.0,-999,-99.99,,,-99.99,,2013-05-31 03:43:00,
2013-05-30 23:53:00,74.0,-99.9,30.22,South,179,9.0,13.0,-999,-99.99,,,-99.99,,2013-05-31 03:53:00,